Location: Caltech
(34.1382°N, 118.1253°W)
Time: 10:31:43
(UTC-07:00)

ALOS - Visible Passes

Search period start: 25 May 2015 00:00
Search period end: 04 June 2015 00:00
Orbit: 686 x 688 km, 97.9° (Epoch: 24 May)

Date Brightness Start Highest point End Pass type
(mag) Time Alt. Az. Time Alt. Az. Time Alt. Az.
25 May 2.2 21:12:06 18° SSE 21:15:34 75° ENE 21:20:15 10° N visible
26 May 3.4 21:50:29 18° SSW 21:53:37 40° W 21:58:01 10° NNW visible
27 May 2.8 20:50:19 13° SE 20:54:12 42° ENE 20:58:38 10° N visible
27 May 4.8 22:29:07 10° SW 22:31:56 15° W 22:34:33 10° WNW visible
28 May 2.4 21:28:43 18° S 21:32:09 71° W 21:36:50 10° NNW visible
29 May 3.5 20:29:07 10° SE 20:32:53 25° ENE 20:36:45 10° NNE visible
29 May 4.1 22:07:07 14° SSW 22:10:18 26° W 22:14:10 10° NW visible
30 May 2.3 21:06:56 15° SSE 21:10:44 67° ENE 21:15:23 10° N visible
31 May 3.2 21:45:20 16° SSW 21:48:45 45° W 21:53:14 10° NNW visible
01 Jun 2.9 20:45:10 10° SE 20:49:22 38° ENE 20:53:43 10° N visible
01 Jun 4.7 22:23:54 10° SW 22:27:01 17° W 22:29:59 10° NW visible
02 Jun 2.3 21:23:34 16° S 21:27:17 80° WSW 21:31:59 10° NNW visible
03 Jun 3.6 20:24:28 10° ESE 20:28:03 23° ENE 20:31:44 10° NNE visible
03 Jun 3.9 22:01:57 13° SSW 22:05:24 29° W 22:09:26 10° NW visible
